CZ-3B DEB, 39334

Orbit data source: Space-Track

CZ-3B DEB, 39334 is space debris in HEO originally from a launch on Sat, 04 Sep 2010 UTC launched from the Xichang Space Center, China (XSC). Debris objects in space refer to the collection of defunct objects orbiting the Earth. Examples of debris include non-operational satellites, rocket bodies, and fragments generated from explosions, collisions, or faulty payload assembly.

Loading next visibility...
Identifier
39334, 2010-042F
Orbit
HEO
Country
Flag of CNCN / PRC
Related business
Manufacturer
CALT
Mission
Spacecraft
Bus & Motor
Unknown
Mass
Unknown
Launch date (UTC)
2010-09-04 (15 years ago)
Launch vehicle
Unknown
Launch site
Xichang Space Center, China (XSC)
Object type
Payload
Rocket body
Debris
Shape & HBR
Unknown shape, 0.3 m
Radar Cross Section
Medium (>0.1 m² and <1 m²)

Expand to show TLE details & history
Last TLE update: 5 days ago

TLE from 5 days ago
0 CZ-3B DEB
1 39334U 10042F   25290.60140995 -.00000255  00000-0  00000-0 0  9994
2 39334  26.6908 298.6151 7336470 306.6447 317.0232  1.86381643 93298
Epoch: 2025-10-17T14:26Z
TLE epoch observation values (Epoch: 2025-10-17T14:26:01.819Z)
Latitude
3.03636°
Longitude
-130.27525°
Altitude
19,571.102 km
Speed
4.053 km/s
True Right ascension
07h 30m 18s
True Declination
3° 01' 53"
Sunlit
Object was in daylight at epoch
Visualization orbit readout
Latitude
Unknown
Longitude
Unknown
Altitude
Unknown
Speed
Unknown
Apparent Right ascension
Unknown
Apparent Declination
Unknown
Sunlit
N/A
Visualization observer readout
Local Sidereal Time
17:11:52
Azimuth
Unknown
Elevation
Unknown
Doppler factor
Unknown
Orbital elements
Apogee altitude
41,981.385 km
Perigee altitude
1,051.694 km
Semi-major axis
27,894.677 km
Eccentricity
0.73365
Inclination
26.6908°
RAAN
298.6151°
Arg. of periapsis
306.6447°
True anomaly
226.43345°
Mean anomaly
317.0232°
Eccentric anomaly
275.15858°
Mean motion
0.46587 °/min
Orbital period
772.75 mins
BSTAR
0
Loading maneuver chart data...
Computing Atmospheric mass density...
Loading historical data...
Loading historical data...
Loading historical data...
Loading historical data...
Loading historical data...
Loading historical data...
Loading historical data...

Documentation

Showing up to 5 results
|